CW2548 Weather Reports


time (UTC)temp
F
wind
direction
speed
knots
gust
knots
rain 1hr
in
rain 24hr
in
rain mn
in
humidity
%
barometer
mb
20260503211516 94 248 3.5 10.4 0.00 0.00 0.00 18 1011.7
20260503210016 94 203 5.2 12.2 0.00 0.00 0.00 17 1011.9
20260503204537 95 203 6.1 13.9 0.00 0.00 0.00 16 1011.4
20260503203015 94 180 8.7 16.5 0.00 0.00 0.00 15 1011.5
20260503201516 94 158 7.0 21.7 0.00 0.00 0.00 16 1011.4
20260503200015 94 158 6.1 16.5 0.00 0.00 0.00 15 1011.9
20260503194517 93 203 3.5 10.4 0.00 0.00 0.00 19 1011.9
20260503193015 92 225 4.3 12.2 0.00 0.00 0.00 20 1012.0
20260503191515 92 135 4.3 11.3 0.00 0.00 0.00 21 1012.4
20260503190036 93 158 3.5 8.7 0.00 0.00 0.00 21 1012.6
20260503184517 92 90 1.7 5.2 0.00 0.00 0.00 22 1012.8
20260503183015 91 90 2.6 13.0 0.00 0.00 0.00 23 1013.2
20260503181557 91 225 1.7 5.2 0.00 0.00 0.00 23 1013.2
20260503180035 90 225 2.6 7.0 0.00 0.00 0.00 23 1013.6
20260503174515 89 113 1.7 6.1 0.00 0.00 0.00 23 1013.5
20260503173015 88 203 2.6 7.8 0.00 0.00 0.00 26 1013.5
20260503171536 87 113 4.3 13.0 0.00 0.00 0.00 26 1013.6
20260503081515 78 135 2.6 6.1 0.00 0.00 0.00 35 1012.3
20260503071516 78 135 0.9 2.6 0.00 0.00 0.00 33 1012.5
20260503054515 80 0.0 1.7 0.00 0.00 0.00 33 1011.8
20260503053016 81 293 0.9 3.5 0.00 0.00 0.00 32 1011.6
20260503051516 81 0 2.6 4.3 0.00 0.00 0.00 32 1011.5
20260503050036 84 248 1.7 6.1 0.00 0.00 0.00 30 1011.1
20260503044516 84 248 3.5 7.8 0.00 0.00 0.00 29 1011.1
20260503043056 85 248 4.3 8.7 0.00 0.00 0.00 29 1010.9
20260503041516 85 248 2.6 6.1 0.00 0.00 0.00 29 1010.7
20260503040015 85 248 2.6 7.8 0.00 0.00 0.00 28 1010.3
20260503034515 86 248 4.3 9.6 0.00 0.00 0.00 28 1010.1
20260503033016 86 248 5.2 9.6 0.00 0.00 0.00 28 1009.8
20260503031515 87 248 5.2 10.4 0.00 0.00 0.00 27 1009.7
20260503030015 87 248 6.1 11.3 0.00 0.00 0.00 27 1009.4
20260503024516 88 248 6.1 12.2 0.00 0.00 0.00 27 1009.5
20260503023036 88 248 7.0 12.2 0.00 0.00 0.00 26 1009.4
20260503021516 89 248 7.0 13.9 0.00 0.00 0.00 26 1009.2
20260503020015 89 248 7.8 13.9 0.00 0.00 0.00 26 1008.9
20260503014516 90 248 6.1 14.8 0.00 0.00 0.00 25 1008.7
20260503013035 91 248 6.1 13.9 0.00 0.00 0.00 25 1008.6
20260503011515 92 248 7.0 14.8 0.00 0.00 0.00 24 1008.6
20260503010016 93 248 7.0 13.9 0.00 0.00 0.00 25 1008.5
20260503004536 94 248 7.0 14.8 0.00 0.00 0.00 25 1008.6
20260503003015 94 248 7.0 13.9 0.00 0.00 0.00 25 1008.3
20260503001516 95 293 6.1 14.8 0.00 0.00 0.00 25 1008.4
20260503000015 95 248 6.1 13.9 0.00 0.00 0.00 25 1008.4
20260502234516 96 293 7.0 14.8 0.00 0.00 0.00 25 1008.3
20260502233015 96 293 6.1 14.8 0.00 0.00 0.00 24 1008.1
20260502231517 97 293 4.3 12.2 0.00 0.00 0.00 22 1008.1
20260502230015 97 225 2.6 7.8 0.00 0.00 0.00 21 1008.1
20260502224516 97 293 6.1 14.8 0.00 0.00 0.00 21 1008.4
20260502223015 98 203 4.3 7.8 0.00 0.00 0.00 21 1008.5
20260502221517 98 293 4.3 12.2 0.00 0.00 0.00 21 1008.5
20260502220016 97 293 2.6 7.0 0.00 0.00 0.00 20 1008.3
20260502214516 98 248 3.5 9.6 0.00 0.00 0.00 20 1008.8
20260502213015 98 293 4.3 9.6 0.00 0.00 0.00 20 1008.9